Temp
4 6 5 5 5 5 5 5 5 5 6 5 5 5 6 8 9 10 9 8 9 9 8 8 9 9 9 9 8 8 8 5 4 5 6 6 6 5 5 6 4 1 2 4
2 2 2 4 4 4 4 5 5 4 5 5 5 4 5 6 7 7 7 7 7 8 8 7 8 7 9 9 7 7 6 6 4 5 5 5 5 4 5 5 4 3 4 6
2 2 2 2 2 4 4 4 2 2 3 3 4 5 5 6 6 6 7 7 6 6 6 6 7 6 7 7 7 8 7 4 4 6 7 5 5 5 5 6 4 6 6 7
2 2 2 2 2 2 3 4 3 3 2 3 3 4 5 5 5 5 5 5 6 6 5 5 5 6 6 5 6 5 5 4 3 4 4 4 4 5 5 5 5 4 7 5
2 2 2 2 2 2 2 3 3 2 2 3 2 3 5 5 5 4 3 4 4 4 5 6 5 5 4 4 4 4 3 3 2 2 3 4 4 4 4 5 5 6 6 5
1 2 2 1 2 1 1 2 3 4 3 2 2 3 4 4 5 5 6 4 4 3 4 5 6 6 5 5 4 3 3 3 3 5 3 3 3 4 4 4 4 5 4 6
1 1 2 2 1 1 1 2 2 2 2 2 3 2 3 3 3 4 5 5 4 5 5 5 4 3 3 2 3 4 3 3 4 4 2 4 6 4 5 4 5 4 4 4
0 0 1 1 1 0 1 1 1 2 2 2 2 2 2 3 3 4 4 5 5 5 4 1 1 2 1 1 2 2 4 4 4 4 3 4 5 4 3 3 4 3 2 2
-0 0 -0 -0 0 1 -0 0 1 1 0 1 2 3 3 3 1 0 3 4 4 4 2 2 2 3 2 3 2 1 3 3 3 3 3 4 4 3 2 3 2 1 2 0
-1 -0 -0 -1 -1 0 0 -0 0 1 1 1 1 1 2 2 2 1 1 0 1 2 2 2 2 2 3 3 1 0 1 2 3 4 4 3 2 2 2 2 4 1 1 1
-1 -1 -0 -1 -1 -1 -0 0 0 0 0 1 1 2 1 2 3 2 0 0 -0 -0 2 2 2 2 1 2 1 -0 1 2 1 2 2 1 1 1 2 2 -0 1 1 1
-1 -1 -1 -1 -1 -1 -1 -1 0 1 0 0 1 1 2 2 3 2 0 1 -0 0 1 1 1 2 -1 -0 0 -0 2 1 1 2 2 1 2 2 3 3 2 1 2 1
-2 -2 -1 -1 -1 -1 -1 -0 -0 -1 -1 -1 -0 0 1 1 1 2 2 -0 1 -0 0 -0 0 1 -1 -2 -2 -0 -0 -0 1 1 0 0 2 2 2 2 3 2 2 1
-2 -2 -2 -1 -1 -2 -2 -1 -1 -2 -2 -1 -1 -1 -1 1 1 1 2 2 1 1 -0 -1 -1 0 -1 -2 -1 -2 -1 -1 -1 -1 -1 -0 1 2 2 2 1 1 1 -0
-3 -2 -2 -1 -1 -1 -1 -1 -2 -1 -2 -1 -3 -2 -2 -1 -0 0 1 1 1 -0 -2 -2 -1 -2 -3 -5 -4 -5 -3 -2 -1 0 1 2 2 3 1 1 1 1 0 -1
-2 -2 -2 -2 -2 -2 -2 -2 -1 -1 -2 -1 -3 -4 -4 -3 -2 -2 -2 -1 -1 -1 -2 -2 -2 -2 -2 -3 -5 -3 -1 1 1 0 1 1 1 2 1 1 1 -0 -1 -1
-2 -2 -2 -2 -2 -2 -3 -2 -1 -1 -1 -1 -4 -5 -5 -5 -4 -4 -3 -3 -3 -3 -3 -3 -4 -4 -3 -3 -5 -3 -1 -0 -1 -0 -0 -2 -1 -1 -1 -1 -2 -2 -2 -3
-2 -2 -2 -2 -2 -2 -3 -2 -1 -2 -2 -1 -4 -8 -6 -5 -5 -5 -5 -5 -4 -4 -4 -5 -5 -5 -5 -5 -5 -3 -2 -3 -3 -2 -2 -2 -2 -3 -3 -3 -3 -3 -4 -4
-2 -2 -2 -2 -2 -2 -2 -2 -2 -2 -1 -4 -7 -7 -6 -5 -6 -5 -5 -5 -5 -5 -5 -6 -5 -6 -6 -5 -4 -3 -3 -3 -3 -4 -3 -4 -4 -4 -4 -4 -4 -5 -5 -5
-2 -2 -2 -5 -4 -4 -3 -4 -3 -3 -4 -5 -6 -6 -6 -6 -6 -5 -5 -5 -4 -5 -6 -6 -6 -6 -5 -4 -3 -3 -3 -3 -4 -4 -6 -5 -5 -5 -6 -5 -5 -5 -5 -5
-2 -4 -6 -6 -5 -4 -4 -6 -5 -6 -6 -6 -6 -6 -7 -6 -5 -5 -6 -5 -6 -8 -8 -7 -9 -8 -9 -5 -5 -4 -4 -4 -5 -4 -5 -5 -5 -6 -6 -6 -6 -6 -6 -6
-3 -3 -5 -5 -6 -6 -6 -8 -8 -7 -6 -7 -7 -7 -7 -7 -6 -6 -6 -7 -7 -8 -11 -13 -11 -12 -7 -7 -7 -6 -6 -6 -6 -6 -6 -6 -6 -6 -6 -6 -6 -7 -7 -6
-4 -4 -6 -6 -8 -7 -7 -9 -11 -9 -8 -8 -8 -8 -7 -7 -7 -7 -7 -8 -7 -9 -12 -11 -12 -8 -8 -7 -7 -7 -7 -7 -7 -7 -7 -7 -7 -7 -7 -7 -7 -7 -7 -7
-2 -5 -8 -9 -8 -10 -9 -10 -8 -8 -8 -8 -8 -8 -7 -8 -9 -9 -8 -9 -10 -13 -15 -13 -12 -9 -8 -8 -7 -7 -7 -7 -7 -7 -8 -8 -8 -8 -7 -7 -7 -8 -7 -8
-6 -8 -11 -13 -11 -11 -10 -10 -9 -9 -8 -7 -8 -9 -8 -11 -11 -12 -10 -11 -13 -13 -12 -12 -10 -9 -7 -8 -8 -8 -8 -8 -8 -8 -8 -8 -8 -8 -8 -8 -8 -8 -8 -9
-9 -10 -13 -11 -10 -9 -9 -9 -9 -8 -8 -7 -7 -16 -15 -14 -14 -14 -13 -13 -14 -13 -15 -10 -10 -9 -9 -9 -9 -9 -9 -9 -8 -8 -8 -9 -9 -9 -9 -9 -9 -9 -10 -10
-9 -11 -10 -11 -11 -11 -11 -10 -11 -9 -7 -14 -16 -15 -13 -18 -17 -15 -16 -16 -14 -11 -10 -10 -10 -10 -9 -9 -9 -9 -9 -9 -9 -9 -10 -10 -11 -12 -12 -12 -10 -11 -11 -11
Height
1507 1509 1512 1512 1513 1516 1516 1521 1522 1520 1521 1523 1519 1521 1517 1518 1515 1517 1515 1518 1516 1517 1521 1522 1522 1517 1515 1514 1516 1520 1520 1530 1534 1526 1519 1521 1521 1523 1525 1528 1533 1543 1543 1513
1505 1504 1505 1508 1511 1513 1514 1514 1516 1519 1520 1516 1514 1515 1515 1515 1515 1516 1516 1514 1513 1515 1516 1521 1517 1517 1513 1511 1513 1515 1517 1523 1534 1525 1522 1520 1520 1521 1520 1522 1527 1526 1528 1502
1502 1503 1502 1504 1507 1510 1513 1512 1512 1514 1516 1515 1512 1514 1509 1511 1510 1509 1511 1510 1512 1513 1515 1511 1513 1513 1513 1514 1514 1514 1511 1521 1519 1513 1511 1514 1520 1517 1516 1514 1524 1509 1498 1486
1495 1498 1501 1502 1503 1506 1510 1506 1501 1499 1508 1509 1509 1512 1509 1507 1508 1510 1507 1507 1507 1509 1513 1511 1511 1511 1512 1509 1509 1514 1518 1518 1519 1511 1513 1513 1513 1513 1511 1510 1509 1513 1485 1491
1489 1492 1495 1496 1499 1502 1502 1499 1499 1498 1498 1500 1504 1503 1503 1508 1506 1505 1508 1509 1507 1508 1508 1508 1510 1510 1509 1509 1507 1509 1515 1510 1516 1511 1509 1510 1504 1504 1504 1502 1494 1493 1490 1485
1483 1486 1488 1491 1493 1496 1496 1495 1492 1494 1488 1492 1496 1496 1494 1495 1501 1500 1498 1498 1503 1506 1505 1507 1508 1509 1507 1505 1505 1507 1508 1510 1507 1492 1502 1507 1506 1489 1490 1486 1483 1484 1491 1475
1476 1477 1481 1484 1485 1486 1488 1490 1492 1490 1480 1480 1481 1485 1490 1488 1494 1494 1491 1494 1496 1493 1497 1503 1507 1506 1503 1504 1502 1498 1498 1505 1507 1496 1507 1498 1475 1476 1474 1476 1473 1477 1475 1472
1467 1470 1473 1476 1477 1479 1479 1482 1486 1483 1480 1478 1479 1483 1482 1483 1487 1489 1488 1491 1494 1492 1495 1499 1508 1506 1502 1491 1492 1496 1484 1496 1496 1494 1490 1480 1472 1475 1475 1476 1471 1470 1470 1471
1461 1462 1465 1467 1471 1471 1473 1472 1475 1479 1477 1469 1473 1476 1478 1479 1482 1485 1482 1486 1490 1491 1492 1497 1496 1495 1497 1490 1486 1490 1481 1486 1489 1489 1484 1475 1472 1472 1470 1471 1477 1467 1468 1469
1453 1455 1456 1459 1460 1465 1465 1465 1466 1464 1466 1467 1470 1470 1471 1474 1475 1479 1480 1481 1488 1486 1485 1487 1485 1484 1486 1489 1487 1490 1484 1479 1480 1479 1472 1470 1467 1468 1470 1480 1466 1466 1468 1467
1446 1447 1449 1451 1453 1456 1459 1454 1458 1460 1452 1455 1457 1460 1466 1467 1464 1469 1474 1482 1478 1480 1478 1479 1477 1474 1476 1479 1476 1481 1479 1477 1480 1480 1480 1480 1464 1468 1472 1465 1464 1464 1466 1466
1438 1439 1441 1444 1445 1447 1452 1450 1449 1450 1448 1446 1450 1453 1453 1456 1459 1462 1464 1466 1469 1472 1475 1473 1473 1468 1470 1473 1475 1471 1470 1465 1469 1468 1466 1461 1459 1458 1458 1460 1461 1462 1464 1465
1431 1433 1434 1435 1439 1440 1444 1443 1446 1444 1442 1443 1443 1443 1446 1447 1453 1453 1457 1460 1463 1466 1466 1468 1468 1466 1465 1475 1470 1463 1461 1458 1461 1464 1457 1456 1456 1458 1457 1458 1458 1459 1462 1464
1426 1424 1426 1429 1432 1436 1439 1436 1438 1441 1442 1438 1436 1436 1439 1441 1445 1446 1450 1453 1456 1456 1463 1464 1458 1462 1460 1460 1457 1459 1454 1454 1458 1459 1455 1453 1455 1453 1454 1455 1457 1458 1460 1464
1415 1414 1420 1425 1423 1432 1432 1430 1432 1435 1439 1436 1432 1434 1436 1434 1436 1440 1444 1446 1448 1448 1454 1455 1455 1454 1459 1457 1457 1457 1448 1445 1454 1449 1443 1445 1444 1446 1449 1451 1453 1456 1458 1462
1405 1409 1413 1418 1420 1425 1426 1426 1425 1423 1428 1433 1431 1430 1429 1432 1430 1435 1438 1439 1440 1443 1445 1447 1445 1447 1452 1452 1454 1437 1436 1437 1442 1440 1441 1442 1442 1442 1446 1449 1451 1454 1457 1460
1395 1401 1406 1411 1415 1417 1420 1421 1419 1418 1425 1427 1428 1429 1429 1429 1432 1433 1434 1435 1437 1439 1440 1442 1445 1447 1448 1448 1448 1433 1433 1437 1438 1438 1439 1440 1440 1441 1443 1446 1450 1453 1456 1457
1386 1393 1399 1405 1410 1412 1412 1413 1416 1418 1420 1420 1421 1426 1428 1430 1428 1429 1431 1435 1437 1438 1439 1441 1441 1445 1446 1443 1431 1431 1432 1433 1434 1436 1437 1437 1439 1441 1443 1446 1448 1452 1453 1454
1379 1389 1397 1400 1401 1400 1403 1409 1413 1415 1417 1410 1417 1419 1422 1423 1426 1429 1433 1435 1437 1437 1436 1438 1441 1441 1437 1426 1426 1428 1429 1430 1432 1435 1436 1437 1439 1441 1443 1445 1448 1449 1450 1452
1377 1383 1390 1389 1392 1396 1402 1409 1412 1409 1406 1408 1410 1415 1418 1423 1427 1429 1433 1432 1431 1433 1436 1437 1437 1430 1423 1424 1424 1425 1426 1428 1430 1432 1435 1437 1438 1441 1443 1444 1445 1447 1447 1448
1368 1373 1381 1389 1394 1396 1399 1405 1408 1407 1407 1406 1408 1412 1415 1421 1424 1427 1429 1428 1431 1439 1439 1437 1438 1429 1420 1419 1420 1422 1424 1427 1429 1431 1433 1435 1438 1439 1441 1442 1443 1444 1444 1444
1365 1370 1383 1394 1395 1396 1400 1406 1408 1406 1404 1406 1407 1410 1412 1417 1420 1423 1427 1429 1432 1438 1438 1445 1441 1425 1419 1419 1420 1421 1423 1426 1429 1431 1433 1434 1436 1437 1438 1439 1439 1439 1438 1438
1372 1379 1387 1391 1398 1401 1402 1407 1410 1405 1401 1403 1406 1409 1412 1417 1419 1423 1427 1429 1430 1434 1443 1440 1431 1420 1420 1421 1421 1423 1425 1427 1429 1430 1431 1432 1433 1434 1434 1434 1434 1433 1432 1431
1376 1382 1394 1397 1399 1401 1399 1400 1399 1401 1401 1403 1405 1408 1412 1416 1421 1426 1427 1433 1433 1447 1457 1438 1423 1420 1420 1421 1422 1424 1426 1427 1428 1428 1429 1429 1429 1429 1429 1427 1426 1424 1422 1421
1380 1386 1400 1404 1402 1401 1400 1401 1400 1401 1403 1404 1407 1411 1414 1420 1425 1428 1431 1437 1443 1441 1432 1425 1421 1420 1419 1421 1423 1424 1424 1425 1425 1425 1425 1424 1424 1422 1420 1419 1417 1415 1413 1412
1388 1395 1403 1403 1401 1401 1401 1402 1403 1403 1404 1406 1407 1415 1422 1427 1427 1432 1434 1437 1439 1428 1424 1421 1421 1421 1421 1422 1422 1422 1422 1421 1420 1419 1418 1416 1415 1413 1410 1409 1407 1406 1405 1403
1396 1402 1403 1404 1405 1406 1407 1407 1408 1407 1407 1411 1412 1423 1425 1428 1436 1435 1433 1435 1426 1422 1422 1422 1422 1421 1420 1420 1419 1417 1416 1414 1413 1411 1409 1406 1405 1403 1400 1397 1396 1396 1394 1391
Wind_Speed
23 20 28 20 14 11 9 10 4 6 12 4 4 2 3 3 4 9 6 1 4 6 6 3 7 7 9 1 6 6 3 4 4 9 3 2 3 7 6 3 5 3 2 7
13 14 17 23 19 14 13 6 8 8 16 4 5 1 3 4 4 5 5 7 5 3 3 6 5 4 5 8 8 7 6 1 2 7 3 1 4 4 4 2 3 8 4 6
21 18 15 14 14 19 19 7 2 5 14 6 2 5 6 6 8 3 5 4 4 3 4 6 3 4 2 2 1 2 6 6 7 10 4 4 4 4 6 8 4 6 16 20
19 19 22 20 16 23 23 14 6 10 4 9 12 4 2 5 6 8 9 3 8 8 6 3 6 8 5 4 4 3 2 5 6 9 6 5 6 5 9 12 11 8 17 14
19 19 21 20 21 16 25 14 8 7 4 6 13 13 10 18 9 7 4 7 7 5 8 12 4 5 4 5 1 6 6 4 5 5 9 13 18 13 16 18 22 20 24 25
24 22 22 20 22 23 23 20 23 13 14 7 7 6 14 5 11 10 21 10 5 7 11 19 21 17 11 8 4 7 6 3 3 12 5 5 9 15 18 10 8 10 15 19
26 26 25 25 25 26 30 32 20 9 6 10 12 10 18 14 17 13 2 13 13 8 7 2 5 6 9 11 13 17 5 5 4 9 4 9 4 2 3 15 10 10 10 8
25 27 26 26 26 28 29 33 31 12 11 10 10 11 7 17 20 18 16 13 6 9 5 3 3 4 4 7 13 14 15 10 6 4 6 7 7 5 6 6 6 5 6 2
28 27 30 30 27 25 31 32 35 25 7 10 18 16 21 10 6 1 11 15 15 13 4 3 6 5 4 4 2 3 7 14 10 3 5 6 4 3 4 3 5 2 3 5
27 27 27 31 27 29 25 34 32 30 16 17 10 7 7 11 11 2 3 6 9 20 5 7 6 6 5 5 6 5 2 2 11 13 10 3 5 5 6 5 5 4 5 7
25 26 27 29 31 27 23 32 34 33 17 27 22 26 15 13 21 7 8 4 4 1 5 4 4 6 7 4 4 6 8 7 4 4 2 7 9 6 7 3 6 8 7 6
25 25 26 28 29 25 21 24 23 34 26 12 32 33 30 31 24 21 16 4 6 8 3 3 2 3 3 4 4 1 5 7 5 8 6 1 19 3 9 11 10 10 10 11
26 27 25 26 27 25 20 23 26 23 14 12 22 24 24 27 26 25 14 8 11 8 10 5 4 5 2 4 6 5 4 4 3 1 5 6 11 13 10 12 10 10 11 14
29 26 26 25 26 26 21 21 23 19 8 5 7 18 26 33 32 28 28 24 16 14 16 10 2 3 10 4 2 4 4 8 5 4 2 2 12 17 14 14 11 12 13 15
32 28 29 25 24 24 21 21 24 23 20 3 2 4 14 17 24 29 29 28 27 16 7 3 4 3 2 0 1 4 9 6 5 7 11 11 11 19 19 17 15 14 16 16
35 32 30 26 23 20 17 9 23 25 24 7 2 4 6 12 14 19 23 22 17 11 7 5 5 4 6 4 3 5 17 15 16 4 6 14 8 10 16 16 16 17 16 13
34 30 29 28 23 20 18 8 5 13 28 6 2 3 4 9 11 10 10 13 7 8 6 5 4 4 6 1 4 3 10 16 13 11 9 6 9 7 16 16 16 15 14 12
34 29 26 25 21 20 25 28 26 11 20 8 3 1 3 11 4 3 6 5 6 5 4 4 3 4 3 5 5 7 6 9 8 10 7 4 10 11 13 15 15 13 10 10
31 26 20 20 23 19 17 21 19 22 19 6 3 5 3 9 4 4 4 5 2 4 2 2 6 2 5 5 10 11 13 10 11 10 7 11 13 12 12 11 9 8 6 7
31 29 15 7 8 18 19 12 10 8 5 4 3 5 3 8 6 4 5 4 2 2 1 5 3 3 10 10 9 8 10 14 14 15 12 12 12 11 9 7 5 5 6 8
32 7 6 23 27 5 5 4 2 1 1 4 5 6 5 7 3 1 1 2 2 2 2 3 2 3 3 6 10 14 10 13 13 8 9 11 11 9 7 5 4 5 8 12
15 16 25 13 3 4 4 1 1 3 3 3 4 4 5 5 5 3 2 2 2 2 1 3 3 3 5 2 8 13 14 13 12 10 10 9 8 6 6 7 9 12 16 19
27 7 5 2 3 3 5 5 3 1 4 6 5 3 5 5 4 4 2 2 2 3 2 3 4 4 3 10 13 13 12 11 10 10 8 7 7 9 12 15 17 20 24 26
4 4 4 2 0 1 1 1 1 2 3 12 14 5 3 4 3 1 3 2 2 2 1 5 2 3 4 12 11 10 9 9 10 10 11 12 15 18 20 23 26 28 31 32
5 5 3 1 1 2 2 2 4 6 12 9 8 6 3 2 3 2 4 2 3 5 4 2 3 3 3 9 10 10 11 11 13 16 19 22 25 28 31 32 32 34 35 35
5 6 4 2 4 4 7 10 9 6 6 6 5 3 4 2 3 3 4 5 5 3 3 0 2 3 3 1 6 10 14 17 21 25 28 31 34 35 36 37 38 36 33 33
5 5 11 9 9 4 4 5 4 4 2 1 3 4 3 1 3 1 3 4 2 2 1 2 5 8 11 13 17 20 23 27 30 32 33 34 32 30 31 35 36 33 31 30
Wind_Direction
263 256 271 276 248 226 226 231 237 226 215 194 202 212 192 220 215 246 235 233 235 218 181 231 257 223 211 192 153 179 207 166 231 221 231 252 213 203 166 161 227 225 221 273
256 251 250 252 247 214 204 216 218 226 208 220 233 225 233 240 204 217 201 218 192 199 195 245 231 206 231 236 183 182 184 175 341 317 2 353 218 206 184 130 99 210 181 256
261 262 255 245 241 208 212 199 177 178 209 238 198 198 216 224 213 230 222 191 160 165 214 191 240 211 286 279 200 126 111 177 192 236 210 143 212 202 206 206 207 248 230 257
252 259 253 249 238 219 218 221 216 184 181 223 233 233 246 181 186 225 211 203 221 190 233 202 224 240 232 210 162 139 127 245 220 243 258 256 226 192 197 216 224 229 262 242
257 260 252 250 235 227 242 224 202 174 197 193 202 211 229 246 248 154 234 244 237 217 236 241 238 206 186 220 200 156 181 240 188 269 240 248 261 242 232 234 243 246 254 272
250 255 254 251 235 220 236 247 236 231 197 170 167 207 220 224 220 246 238 211 188 220 234 238 248 260 232 204 178 193 189 207 196 263 202 244 274 246 220 223 223 221 241 251
250 248 251 250 241 230 235 243 257 265 240 196 208 192 205 212 220 222 222 218 212 218 198 221 258 252 246 248 236 208 200 216 242 267 149 239 269 300 195 214 239 219 253 257
257 248 244 247 248 241 243 241 243 255 248 217 219 209 194 222 232 236 235 221 209 183 146 87 304 278 292 243 230 233 213 222 241 233 212 303 286 216 186 179 256 217 221 177
253 251 254 243 253 251 246 247 242 242 270 227 230 221 216 215 200 306 233 231 228 195 136 171 209 211 241 255 251 341 221 220 228 210 234 214 234 213 148 110 272 162 177 163
257 257 249 253 245 254 255 252 252 232 234 245 245 215 223 201 180 187 161 192 190 197 179 202 207 221 196 230 218 181 158 186 230 246 260 259 240 162 137 162 267 155 152 152
258 257 253 250 248 247 259 257 251 243 238 232 220 224 217 197 195 194 169 152 190 183 209 203 187 203 202 200 200 182 179 174 198 211 264 273 154 112 181 185 144 152 154 169
262 258 254 251 257 241 259 257 259 250 230 245 236 234 230 223 218 204 182 191 154 191 209 220 211 220 150 176 238 112 222 189 190 186 209 247 187 192 196 172 168 176 170 164
263 258 252 249 252 240 250 257 263 276 258 249 229 229 224 219 220 215 193 205 208 188 217 205 207 254 144 178 241 188 242 168 216 133 219 216 211 221 209 196 191 183 190 185
257 259 257 247 244 247 247 250 261 255 260 260 217 228 229 238 237 238 234 231 208 234 240 214 213 207 195 216 246 204 190 139 183 256 278 268 237 221 215 207 209 197 194 199
253 251 251 247 242 246 250 253 255 249 224 277 182 234 229 224 226 225 225 226 232 227 179 209 218 157 182 67 81 244 192 177 181 234 211 216 241 240 217 210 210 208 203 194
252 247 245 240 235 238 246 266 258 238 234 244 207 234 219 209 202 217 222 222 220 202 188 201 193 202 192 187 220 253 210 215 231 249 238 227 236 198 204 213 209 206 200 204
245 242 239 236 235 236 217 209 216 209 212 224 182 185 178 182 183 179 178 191 197 193 177 193 181 181 191 243 238 230 211 224 230 237 216 179 183 196 197 201 192 193 198 203
237 234 232 232 236 236 231 234 241 230 192 211 173 162 151 178 156 122 162 154 166 181 173 156 153 147 211 244 239 215 205 203 199 189 199 204 188 162 163 175 180 190 199 216
220 218 220 221 217 199 202 223 229 216 212 160 129 156 192 161 112 129 142 172 162 178 170 176 160 182 224 220 212 219 214 202 191 175 177 159 165 166 170 179 185 201 219 243
197 188 176 147 149 154 179 167 186 206 198 140 131 147 137 160 162 153 152 178 158 182 183 148 219 254 257 242 231 231 224 207 190 166 160 170 171 176 175 184 202 232 263 284
170 130 77 133 136 130 130 123 177 184 309 178 136 166 133 159 146 116 133 133 92 142 249 169 251 265 255 273 249 232 211 192 188 202 189 183 187 183 186 196 234 274 292 302
148 135 122 138 139 70 91 105 225 214 209 146 136 123 109 122 134 120 140 128 116 222 112 76 269 259 302 253 155 153 162 168 172 173 177 178 187 209 237 266 287 299 302 304
116 99 93 61 39 87 178 183 269 208 168 170 154 113 115 109 94 88 119 144 141 99 69 235 229 278 209 165 155 154 161 170 180 186 198 215 243 268 282 288 294 298 298 299
88 91 73 55 43 276 184 153 83 73 159 145 124 88 91 101 79 70 120 67 98 71 306 235 247 328 186 186 182 187 197 208 218 232 251 267 279 285 287 290 292 296 295 299
75 63 91 68 260 238 182 133 102 91 131 132 114 91 104 57 98 25 97 76 234 207 227 239 332 10 170 197 211 223 231 247 260 269 274 278 283 285 286 288 291 290 293 295
65 56 77 85 55 41 64 84 65 83 107 101 81 95 62 41 123 91 199 130 220 250 225 113 72 50 51 247 251 259 266 272 276 278 280 281 281 284 285 284 284 287 291 289
56 48 63 90 84 77 49 57 20 38 29 109 101 70 201 94 47 347 197 195 232 317 60 316 306 307 299 291 284 281 280 280 280 280 280 282 284 284 283 283 286 289 287 284